FW8309 Weather Reports


time (UTC)temp
C
wind
direction
speed
KPH
gust
KPH
rain 1hr
cm
rain 24hr
cm
rain mn
cm
humidity
%
barometer
mb
20260505055846 12 254 0.0 0.0 0.00 0.00 0.00 90 1011.7
20260505054342 12 247 0.0 0.0 0.00 0.00 0.00 90 1011.5
20260505052840 12 247 0.0 0.0 0.00 0.00 0.00 88 1011.8
20260505051337 13 248 0.0 0.0 0.00 0.00 0.00 86 1011.5
20260505041330 14 252 0.0 0.0 0.00 0.00 0.00 85 1010.4
20260505035827 15 254 0.0 0.0 0.00 0.00 0.00 82 1010.3
20260505034327 16 251 0.0 0.0 0.00 0.00 0.00 79 1010.4
20260505032826 16 242 0.0 0.0 0.00 0.00 0.00 75 1009.9
20260505031321 17 243 0.0 0.0 0.00 0.00 0.00 73 1009.9
20260505025821 17 241 0.0 0.0 0.00 0.00 0.00 70 1009.8
20260505024321 18 248 0.0 0.0 0.00 0.00 0.00 66 1009.5
20260505022818 20 256 1.6 1.6 0.00 0.00 0.00 56 1009.4
20260505021314 21 272 1.6 1.6 0.00 0.00 0.00 52 1009.2
20260505015809 22 217 6.4 8.0 0.00 0.00 0.00 46 1009.4
20260505014307 22 263 0.0 0.0 0.00 0.00 0.00 50 1009.5
20260505012804 23 254 0.0 0.0 0.00 0.00 0.00 44 1009.2
20260505011300 24 253 1.6 3.2 0.00 0.00 0.00 41 1009.2
20260505005800 24 248 0.0 1.6 0.00 0.00 0.00 41 1009.0
20260505004256 25 242 1.6 1.6 0.00 0.00 0.00 43 1009.5
20260505002753 25 295 3.2 8.0 0.00 0.00 0.00 40 1009.5
20260505001251 25 243 3.2 3.2 0.00 0.00 0.00 42 1009.1
20260504235748 25 311 4.8 4.8 0.00 0.00 0.00 40 1009.5
20260504234245 25 207 3.2 3.2 0.00 0.00 0.00 40 1009.2
20260504232746 26 46 3.2 4.8 0.00 0.00 0.00 39 1009.6
20260504231242 25 322 6.4 9.7 0.00 0.00 0.00 42 1009.4
20260504225741 25 139 1.6 1.6 0.00 0.00 0.00 43 1009.9
20260504224237 25 333 4.8 11.3 0.00 0.00 0.00 43 1009.8
20260504222732 25 116 4.8 9.7 0.00 0.00 0.00 44 1009.8
20260504221229 25 115 9.7 12.9 0.00 0.00 0.00 44 1010.0
20260504215725 25 228 3.2 4.8 0.00 0.00 0.00 45 1010.0
20260504214221 25 272 11.3 12.9 0.00 0.00 0.00 44 1010.2
20260504212717 25 112 8.0 11.3 0.00 0.00 0.00 45 1010.4
20260504211212 25 143 8.0 14.5 0.00 0.00 0.00 43 1010.2
20260504205710 25 237 8.0 12.9 0.00 0.00 0.00 46 1010.2
20260504204210 25 168 4.8 8.0 0.00 0.00 0.00 45 1010.2
20260504202705 25 2 3.2 3.2 0.00 0.00 0.00 45 1010.4
20260504201203 25 170 6.4 9.7 0.00 0.00 0.00 47 1010.3
20260504195659 25 271 4.8 9.7 0.00 0.00 0.00 46 1010.4
20260504194159 25 272 4.8 4.8 0.00 0.00 0.00 46 1010.4
20260504192658 24 240 1.6 1.6 0.00 0.00 0.00 48 1010.5
20260504191156 23 233 3.2 4.8 0.00 0.00 0.00 48 1010.9
20260504185651 23 174 3.2 4.8 0.00 0.00 0.00 48 1010.9
20260504184150 23 87 8.0 9.7 0.00 0.00 0.00 48 1010.6
20260504182648 22 212 1.6 1.6 0.00 0.00 0.00 48 1010.7
20260504181146 22 130 4.8 8.0 0.00 0.00 0.00 47 1010.6
20260504175646 23 183 1.6 1.6 0.00 0.00 0.00 47 1010.7
20260504174143 22 89 1.6 3.2 0.00 0.00 0.00 49 1011.0
20260504172640 22 222 3.2 4.8 0.00 0.00 0.00 49 1010.6
20260504171136 21 203 1.6 1.6 0.00 0.00 0.00 51 1011.0
20260504151114 13 258 0.0 1.6 0.00 0.00 0.00 82 1011.2
20260504141107 10 278 1.6 1.6 0.00 0.00 0.00 95 1011.1
20260504081000 10 247 0.0 0.0 0.00 0.00 0.00 94 1010.7